Wind_Speed
9 9 10 10 10 10 10 11 10 10 10 12 15 15 16 16 15 15 12 11 13 13 11 11 10 9 7 5 4 6 7 7 7 6 5 5 5 7 12 16 18 18 15 15 18 19 15 13 11 10 9 8 9 9 9 10 12 11 9 8 7 6
9 9 10 9 9 9 9 10 10 9 9 12 15 15 16 15 14 14 13 13 12 10 11 10 9 7 6 5 4 5 7 7 7 6 4 3 3 7 11 16 18 18 17 15 18 20 18 15 13 12 10 9 8 8 8 8 10 11 9 8 8 7
9 9 10 9 9 9 9 9 9 9 10 12 14 14 14 13 14 14 14 14 11 10 10 9 8 8 7 7 5 5 6 7 6 5 4 2 2 6 10 15 18 19 19 16 17 19 20 17 15 14 12 10 8 8 8 8 8 9 9 8 7 7
9 9 10 9 10 10 10 11 10 11 11 13 13 14 14 13 14 14 14 13 11 10 9 8 9 9 8 8 7 7 7 7 6 5 3 2 1 5 9 15 18 20 20 18 17 18 20 20 17 15 14 11 9 8 9 8 7 6 7 6 6 6
9 9 9 8 10 10 11 12 12 12 12 13 13 13 13 13 14 14 13 11 11 11 9 8 8 8 8 8 8 9 8 7 7 5 3 2 3 4 8 14 18 19 19 20 19 18 19 20 19 17 14 12 10 9 9 8 7 6 5 5 5 5
7 7 7 7 8 8 10 11 12 13 13 14 14 12 14 15 14 14 14 11 9 10 10 9 8 7 7 8 8 10 9 8 8 6 4 3 4 4 6 13 18 19 18 20 21 19 18 20 20 18 15 13 11 10 9 8 7 7 6 4 4 3
6 5 5 5 6 6 8 10 12 14 14 14 14 12 13 15 14 13 14 13 10 8 9 10 9 7 6 8 10 10 9 9 8 7 6 5 5 5 5 11 16 19 19 19 22 21 18 18 20 19 17 14 12 11 10 8 8 7 6 4 3 3
5 4 4 5 5 6 8 10 12 15 15 16 15 12 12 14 14 14 14 13 11 9 9 11 10 9 9 10 11 12 11 10 9 8 8 6 5 5 4 9 14 18 19 19 21 22 19 17 19 19 18 16 13 12 10 9 8 7 6 5 4 4
3 4 4 4 5 6 8 10 12 14 15 16 15 12 12 14 14 14 15 14 13 12 12 13 12 11 12 12 13 14 14 13 11 10 9 7 5 3 2 8 13 15 17 17 19 20 19 17 17 18 19 17 15 13 12 10 9 9 7 6 6 5
3 4 4 5 4 5 8 10 12 14 15 15 14 12 13 13 14 14 15 15 15 15 14 14 14 14 13 12 14 16 15 14 13 12 10 7 6 3 3 8 13 14 15 15 16 17 17 16 15 17 19 18 17 15 13 12 10 9 9 8 7 7
4 5 5 5 5 4 6 9 11 13 14 13 13 14 13 13 15 14 15 16 15 16 15 15 17 16 12 11 15 16 15 15 15 13 11 8 8 6 5 8 12 14 14 14 13 14 16 15 14 15 19 20 18 17 16 14 12 11 10 10 10 9
5 6 6 5 4 3 4 7 9 11 13 12 12 14 15 14 15 14 14 15 15 16 15 16 18 16 10 7 13 16 16 16 15 14 13 11 10 10 8 8 11 14 14 13 13 12 13 15 15 14 18 21 20 20 18 17 15 13 12 11 11 10
6 7 6 5 3 2 3 4 6 8 10 10 10 12 13 13 14 13 13 14 14 15 14 16 15 11 8 6 10 15 16 16 15 14 14 13 12 12 12 10 10 12 13 12 11 10 10 12 14 14 16 20 22 21 20 19 16 15 12 11 11 11
6 7 6 4 2 2 3 4 4 6 7 8 9 10 10 9 10 11 13 14 15 15 14 15 13 8 7 7 10 12 13 15 16 15 15 14 14 14 13 12 10 10 11 11 10 9 9 10 12 13 15 18 19 20 19 17 14 13 11 10 10 10
5 5 4 3 2 3 4 5 5 6 7 8 8 9 9 8 8 9 10 12 14 15 13 13 13 11 8 7 9 12 12 14 16 16 16 15 15 14 14 14 13 11 10 10 9 9 9 10 11 12 14 15 16 16 14 12 11 10 9 9 9 8
3 3 3 3 3 4 5 6 6 7 8 9 9 9 8 8 8 8 8 11 13 14 14 13 12 11 9 8 10 11 12 14 16 18 18 18 17 17 17 16 15 14 13 12 11 11 12 12 13 14 15 15 16 15 13 11 9 8 8 8 8 8
2 2 2 3 3 4 5 5 6 8 9 10 10 9 7 7 7 6 6 7 9 11 12 12 11 10 10 11 11 11 12 13 16 19 20 19 20 21 19 17 17 16 15 15 14 14 15 15 16 16 16 17 17 16 15 12 10 9 9 8 8 8
2 3 3 3 3 4 5 4 5 6 8 9 9 10 9 8 7 7 6 5 5 6 7 8 9 9 10 11 10 11 12 13 14 17 19 20 22 24 21 18 18 18 17 17 17 17 17 17 17 17 17 18 19 18 16 15 13 11 11 10 9 8
3 3 4 4 4 5 4 3 3 3 4 6 7 8 8 9 9 8 8 7 6 6 6 7 7 7 9 10 9 9 10 12 13 15 18 20 22 21 20 20 19 18 17 17 17 17 18 17 18 18 17 18 20 20 18 18 16 14 13 12 10 9
3 3 4 4 5 5 5 3 2 2 3 3 4 3 3 4 4 5 6 6 7 7 7 8 8 7 8 9 9 9 10 11 13 14 13 14 18 16 14 16 16 15 15 14 12 13 17 18 19 18 16 16 18 19 20 20 18 16 15 14 12 11
3 4 4 5 5 5 4 3 4 5 5 4 3 3 3 3 2 1 2 3 5 6 7 8 9 9 8 8 9 11 12 14 13 12 8 6 11 13 12 10 10 12 14 13 12 12 15 18 19 19 16 16 17 17 18 19 19 18 16 15 15 14
4 4 5 6 5 5 4 4 6 7 7 7 6 6 6 6 5 4 4 4 4 5 6 7 8 8 9 8 8 9 11 13 13 11 9 8 7 9 12 11 11 13 15 15 15 15 14 14 17 19 18 17 16 16 17 19 20 20 19 18 17 17
6 5 7 7 7 7 8 8 7 7 8 7 7 7 7 8 7 7 6 6 6 5 4 5 6 6 7 7 7 8 7 8 9 8 7 8 7 6 10 11 12 14 15 16 16 16 15 15 16 18 18 17 16 16 17 18 19 20 20 20 20 19
7 7 8 9 10 10 10 10 9 8 8 6 6 7 8 8 8 8 8 8 9 8 7 4 2 3 4 5 6 7 6 5 5 4 3 3 5 6 7 8 8 11 13 14 16 16 16 17 16 15 15 15 15 15 15 16 18 18 17 19 20 20
9 9 9 11 13 13 11 11 10 9 8 7 7 6 6 7 8 9 9 9 11 11 10 8 6 3 1 2 4 5 6 5 5 4 3 2 3 4 5 4 5 9 11 11 13 15 15 14 13 12 13 14 12 11 14 16 17 15 14 15 17 18
10 11 11 12 14 14 12 11 10 9 8 8 9 7 5 5 6 8 8 9 10 11 11 11 9 7 5 2 0 2 3 4 5 5 4 3 3 4 5 4 4 7 9 8 9 11 11 11 10 11 12 14 13 12 15 18 17 15 13 13 13 13
11 12 12 13 14 14 13 11 9 8 7 8 9 7 5 4 5 6 7 8 9 10 10 11 11 10 8 6 4 2 1 0 2 3 3 3 4 3 4 4 3 4 5 6 6 7 8 8 8 8 8 11 13 12 14 16 18 18 17 15 12 10
13 13 13 13 14 14 13 12 10 9 7 7 8 6 4 4 4 4 5 6 7 8 9 10 10 10 10 9 8 7 5 4 3 3 2 2 3 3 3 4 4 4 4 5 5 6 7 7 7 7 7 7 9 9 9 10 13 14 16 18 17 15
16 15 13 13 14 13 13 12 11 11 9 7 7 7 5 4 3 3 3 4 5 6 6 7 8 9 9 10 9 9 9 7 6 5 4 3 3 2 3 4 5 5 6 6 6 7 7 8 8 8 8 8 8 7 7 7 6 7 10 14 16 17
19 17 15 14 14 13 13 14 14 12 11 9 8 9 8 6 4 3 3 3 3 3 3 5 6 7 8 8 8 8 8 7 6 5 5 4 3 3 3 4 4 5 6 6 7 8 8 9 10 10 11 11 11 10 9 9 7 7 9 10 13 14
21 19 17 16 15 14 14 16 16 14 12 11 10 9 8 7 5 4 3 2 2 1 1 2 3 5 5 6 6 6 6 5 5 4 3 3 2 3 3 4 4 5 6 7 7 8 9 9 10 11 12 12 12 12 11 11 10 10 10 11 12 15
24 22 20 18 17 16 16 17 17 16 14 12 11 10 8 6 5 4 4 3 3 3 2 1 1 2 3 4 4 4 4 3 3 3 3 3 3 3 3 4 4 5 5 6 8 9 10 11 11 11 11 12 12 12 12 12 12 13 13 13 14 16
28 25 23 21 20 19 18 18 18 18 17 15 14 12 9 7 7 6 5 5 4 4 3 3 2 2 2 2 2 2 2 2 2 3 3 3 4 4 5 5 5 5 5 6 6 7 9 10 11 11 11 12 12 12 13 13 14 15 15 16 16 17
31 28 26 24 23 22 20 20 20 19 18 18 17 15 11 9 8 8 7 6 5 5 5 4 4 4 4 3 2 1 1 0 1 2 3 3 3 4 4 5 5 5 5 6 6 7 8 9 10 10 11 11 12 13 13 14 15 16 16 18 18 18
34 32 31 29 27 25 22 21 22 21 21 20 19 18 15 11 10 9 8 7 7 6 6 6 6 6 5 4 3 2 1 1 1 2 3 4 4 4 4 5 6 6 6 6 7 7 8 8 9 10 11 11 12 13 14 15 16 17 17 18 18 19
38 36 35 32 30 27 24 23 23 23 23 22 22 21 19 15 12 11 9 8 8 8 7 7 8 8 7 5 4 3 2 2 2 3 4 5 5 5 6 6 7 8 9 9 9 9 8 8 9 10 11 12 12 13 14 15 16 17 17 18 19 19
41 38 37 33 31 28 26 25 26 26 25 25 24 23 21 18 15 13 11 10 10 9 9 9 10 9 8 7 5 4 3 3 4 5 6 6 6 6 6 7 8 9 10 11 11 12 11 10 10 10 11 12 13 14 15 16 16 17 18 18 19 20
Wind_Direction
171 171 170 166 164 161 161 168 170 178 185 189 189 188 186 185 190 195 190 192 205 207 210 206 210 227 226 229 214 196 202 205 211 203 185 182 178 194 198 191 189 193 191 189 189 193 201 209 218 221 212 186 159 157 154 146 140 137 141 140 133 128
177 179 180 177 174 169 170 175 177 182 186 187 188 188 188 190 194 195 190 192 202 205 207 208 213 226 229 235 218 205 208 209 215 208 191 181 174 189 196 193 189 192 194 190 190 193 196 203 215 224 224 215 188 168 164 157 145 136 137 142 140 137
183 183 185 186 189 188 188 188 188 191 191 190 191 193 195 196 195 197 196 194 197 204 206 210 221 225 229 236 223 209 209 213 214 213 208 164 156 190 192 192 188 191 198 195 193 196 197 199 209 224 229 225 213 183 174 173 157 138 134 140 145 141
183 187 192 193 196 199 202 200 200 199 194 195 196 198 202 200 197 200 200 198 196 203 211 212 218 224 231 234 229 225 213 213 212 206 206 158 180 198 190 193 190 191 197 199 199 199 200 199 203 221 230 224 217 197 184 183 174 153 137 138 147 144
180 187 195 196 197 201 207 207 209 207 200 199 201 201 205 203 203 204 202 205 199 199 211 215 219 229 232 223 230 241 223 211 208 194 190 202 241 219 190 193 192 191 194 201 205 203 203 201 203 215 225 222 216 204 194 189 183 175 157 145 150 145
187 193 199 202 201 200 206 211 215 215 210 206 205 206 209 208 211 209 205 212 203 194 204 213 224 237 236 218 221 234 221 209 207 193 191 228 266 261 205 193 192 190 192 200 206 207 206 204 205 212 221 220 215 210 203 199 190 184 179 167 162 158
182 192 203 211 215 209 208 213 217 218 216 212 212 214 215 212 213 212 209 215 209 196 204 213 222 235 240 224 221 225 218 210 205 197 202 233 276 281 231 195 190 189 190 199 205 208 208 207 207 211 219 219 214 213 210 206 198 193 192 189 190 196
175 186 203 216 230 232 223 218 217 217 214 212 213 215 219 218 218 217 216 220 219 211 211 218 225 238 235 221 220 219 216 214 206 202 211 235 275 289 242 194 187 187 188 196 203 206 209 209 208 208 215 220 215 213 213 208 203 202 204 209 218 229
199 209 230 239 244 241 235 227 219 216 214 213 214 211 213 218 219 221 223 223 227 225 221 226 232 237 231 220 218 211 210 213 207 204 211 231 253 273 223 180 176 178 183 192 200 204 208 212 211 207 209 217 218 214 215 213 212 214 216 224 232 242
239 248 268 267 262 250 236 232 224 218 216 216 215 212 209 213 216 218 223 225 229 232 231 238 245 242 231 220 214 204 202 208 206 204 208 219 221 204 151 158 163 167 173 184 193 200 206 211 213 209 206 211 218 217 219 220 221 225 229 238 246 255
262 268 280 276 271 260 237 233 228 223 222 218 212 212 211 214 218 218 221 224 229 235 239 251 262 263 249 221 211 203 196 204 207 205 204 206 205 193 155 149 157 160 164 172 180 191 201 207 211 211 207 208 216 220 225 227 228 234 242 253 261 265
280 277 280 280 275 254 225 225 227 226 228 226 215 213 212 215 225 225 225 225 230 239 248 263 274 284 277 227 208 211 205 207 211 207 203 203 204 198 181 166 163 164 167 171 176 185 196 204 210 214 210 210 216 223 228 231 234 242 250 260 266 267
287 282 278 278 270 223 192 203 219 224 228 234 230 223 216 219 231 236 235 233 237 247 259 274 285 292 277 227 202 213 211 209 214 208 201 200 205 205 197 189 179 177 179 180 182 189 198 204 208 214 215 212 216 223 230 235 240 245 251 257 262 263
280 279 276 273 255 195 181 187 206 223 234 245 248 242 232 227 233 238 242 242 246 254 265 277 288 291 267 231 208 214 209 208 213 209 202 201 208 213 213 209 203 197 192 191 193 199 205 208 208 210 213 215 219 225 232 236 239 241 246 254 257 258
261 265 257 245 218 192 193 199 211 223 237 249 254 257 253 247 245 245 250 252 253 258 267 277 282 287 281 249 221 216 211 210 213 212 208 208 212 219 224 226 227 226 220 215 211 209 212 215 214 210 209 214 219 224 228 231 234 238 243 247 248 250
242 248 229 217 214 209 210 212 220 226 232 240 247 258 265 265 264 260 257 261 264 266 271 276 276 278 273 257 237 222 214 212 214 216 214 214 219 224 225 228 234 233 232 235 229 224 226 224 221 215 213 215 217 222 227 230 235 242 244 247 249 250
190 196 200 213 225 231 231 221 217 221 225 232 237 245 256 264 268 267 262 265 273 273 272 269 266 265 262 257 246 230 221 217 220 224 223 222 228 232 229 228 234 233 232 232 233 237 238 232 228 225 222 219 220 224 228 232 239 246 249 258 266 263
170 168 181 203 223 236 240 228 213 216 225 230 234 239 245 251 256 261 264 268 274 280 278 270 265 264 265 262 251 237 229 225 228 234 234 231 236 240 238 234 233 232 236 239 240 245 243 234 231 233 231 226 226 230 233 236 243 247 252 266 276 276
175 176 181 194 209 221 222 223 221 213 215 223 233 239 246 252 255 259 262 265 267 268 267 268 269 265 262 260 253 243 234 227 224 232 237 233 238 247 241 234 232 231 239 246 246 246 243 237 232 235 237 232 232 236 239 242 245 249 254 264 273 275
186 192 190 195 199 202 200 204 203 168 162 195 222 231 238 246 254 260 262 266 270 267 260 257 260 261 263 259 251 250 248 241 232 233 239 236 244 259 254 236 229 231 241 245 245 243 241 240 236 237 239 236 235 239 245 247 248 253 258 263 270 272
198 205 196 197 198 190 184 177 157 133 127 135 130 106 83 79 61 360 314 298 288 284 276 262 255 252 258 264 258 256 254 254 256 255 262 259 248 253 256 235 213 230 249 244 240 242 240 240 241 243 242 241 241 243 249 252 253 257 260 262 267 269
217 213 194 194 191 165 145 140 136 126 123 120 106 90 79 74 66 51 30 2 338 315 299 284 271 256 250 257 257 258 259 260 269 276 276 282 273 245 241 232 211 227 247 245 243 247 247 246 245 247 246 249 254 255 255 257 259 261 262 262 263 265
222 210 191 187 179 155 142 136 134 131 125 116 99 88 83 80 75 66 53 39 31 14 345 309 290 273 255 251 247 252 262 265 272 283 281 284 292 260 242 236 221 223 236 243 247 251 254 256 253 249 248 254 266 273 269 265 265 263 264 265 264 265
222 210 195 182 172 163 152 144 144 141 129 121 112 97 87 81 77 71 63 54 48 42 31 17 334 294 266 254 249 245 248 253 263 279 286 282 279 264 257 254 241 233 236 240 244 248 252 256 255 248 245 252 266 283 284 280 277 267 263 267 266 267
224 212 197 182 176 175 166 158 158 154 146 143 137 116 94 83 78 71 65 59 53 50 46 46 50 39 347 269 257 246 244 248 255 264 264 262 260 262 269 271 256 249 248 245 244 248 251 255 255 245 240 245 256 276 284 290 292 277 264 265 265 266
226 214 197 185 183 184 179 173 166 155 148 148 147 137 115 100 86 73 66 62 57 54 54 56 61 62 62 58 312 247 246 252 260 268 269 267 265 268 274 272 252 247 253 256 252 251 250 251 252 245 240 243 245 254 264 277 292 290 278 266 259 260
228 217 199 192 192 193 191 186 172 154 140 141 151 147 131 122 100 83 72 66 63 59 58 62 68 71 74 77 78 83 99 254 279 286 289 287 285 286 290 286 273 252 248 251 249 246 246 245 244 242 241 243 247 253 257 262 274 284 288 280 263 251
227 220 207 201 200 203 203 192 177 169 160 150 155 152 146 145 120 101 84 72 69 65 62 67 73 76 77 77 77 78 79 76 64 38 12 345 322 307 297 288 282 274 261 254 249 246 244 242 239 238 238 240 247 254 257 258 265 275 281 282 276 264
223 223 217 212 207 208 210 199 184 183 182 168 165 173 181 177 152 129 103 83 76 73 71 73 78 83 82 80 77 76 77 78 74 64 50 36 19 339 302 281 271 266 262 257 253 251 249 248 246 246 245 245 248 248 255 262 263 264 269 277 281 277
220 224 224 220 214 210 212 206 195 192 192 186 184 187 193 196 185 169 148 117 94 87 85 85 87 89 89 87 83 79 78 79 78 71 61 46 25 355 325 304 285 271 263 256 253 252 253 254 253 255 256 258 260 260 262 263 256 258 268 274 280 285
219 226 227 225 220 214 215 213 202 197 199 199 201 200 198 199 194 180 172 166 156 153 129 106 109 105 100 97 90 82 76 73 74 72 64 53 30 360 341 323 309 293 278 267 260 256 256 259 260 262 264 266 270 272 273 274 270 268 273 276 280 284
220 225 228 227 226 219 218 219 208 201 204 207 212 212 203 194 192 186 186 194 203 214 223 213 158 133 122 113 103 91 77 62 58 57 48 42 39 29 15 354 336 319 303 287 274 265 259 258 259 260 263 265 268 270 271 272 273 273 272 273 277 282
222 226 228 229 229 223 221 223 215 205 206 213 220 221 210 195 192 193 198 207 216 228 237 238 230 203 176 149 129 106 82 66 55 47 31 23 20 16 9 358 349 338 328 317 301 288 274 266 262 259 259 260 261 262 263 264 266 268 270 270 273 277
224 227 230 231 230 227 224 225 221 211 208 215 223 226 218 205 202 201 202 209 219 231 237 233 230 225 215 198 185 168 141 68 46 35 13 2 358 359 354 344 340 336 331 327 319 311 300 289 282 275 269 265 263 261 261 261 263 264 267 269 271 274
225 227 231 232 231 229 226 226 225 217 212 215 223 228 226 217 214 213 209 212 220 228 237 236 233 235 230 217 208 204 215 268 351 360 346 337 337 340 338 334 334 335 336 334 324 315 306 297 291 286 283 278 273 270 267 265 265 265 266 268 270 272
228 229 230 230 231 232 228 227 227 222 216 217 223 230 231 225 221 221 216 216 223 228 236 239 238 241 240 230 223 223 238 275 319 329 321 314 319 324 325 329 331 333 337 337 331 323 313 303 295 290 287 286 284 280 277 273 271 269 267 267 268 269
226 227 228 229 233 235 232 231 231 227 221 219 222 228 231 229 224 224 220 219 225 230 234 238 241 244 243 237 234 238 256 285 306 310 303 296 300 310 317 322 324 328 331 331 330 326 320 312 305 299 295 294 293 292 289 285 281 277 274 271 268 266
Height
1527 1528 1528 1529 1530 1531 1532 1532 1533 1533 1534 1535 1536 1537 1538 1540 1540 1541 1542 1543 1545 1545 1545 1545 1546 1547 1547 1547 1546 1546 1546 1545 1545 1546 1546 1547 1548 1549 1551 1552 1551 1552 1552 1552 1552 1553 1554 1554 1554 1554 1555 1556 1556 1557 1558 1558 1558 1559 1560 1561 1562 1562
1527 1528 1528 1529 1530 1531 1532 1532 1533 1533 1534 1535 1536 1537 1538 1539 1540 1540 1541 1543 1544 1545 1545 1545 1545 1546 1546 1545 1545 1546 1546 1546 1546 1546 1546 1546 1547 1548 1550 1551 1551 1551 1552 1552 1552 1553 1554 1555 1555 1555 1555 1556 1557 1558 1558 1559 1559 1559 1560 1561 1561 1562
1527 1528 1528 1529 1530 1531 1532 1532 1533 1534 1534 1535 1535 1536 1537 1538 1539 1540 1541 1543 1544 1544 1545 1545 1545 1545 1545 1544 1545 1546 1547 1547 1546 1546 1546 1546 1546 1548 1549 1550 1551 1550 1551 1552 1552 1553 1553 1555 1555 1555 1556 1556 1557 1558 1559 1559 1560 1560 1560 1561 1561 1562
1527 1528 1528 1529 1530 1530 1531 1532 1533 1533 1534 1535 1536 1536 1537 1538 1539 1541 1542 1543 1544 1544 1544 1544 1545 1544 1544 1544 1545 1546 1547 1547 1546 1546 1546 1546 1546 1547 1548 1549 1550 1549 1550 1551 1552 1552 1553 1554 1555 1555 1556 1557 1557 1558 1559 1560 1560 1560 1560 1561 1561 1562
1527 1528 1528 1529 1530 1530 1531 1531 1532 1533 1534 1535 1536 1536 1537 1538 1539 1541 1542 1543 1544 1544 1544 1544 1544 1543 1544 1545 1545 1547 1547 1547 1546 1546 1546 1546 1546 1547 1547 1548 1549 1549 1549 1550 1551 1552 1553 1554 1555 1555 1556 1557 1558 1558 1559 1560 1560 1561 1561 1561 1562 1562
1527 1528 1528 1529 1529 1530 1530 1531 1532 1532 1533 1534 1535 1536 1537 1538 1539 1541 1542 1543 1544 1544 1544 1543 1542 1542 1543 1544 1546 1547 1547 1547 1546 1546 1546 1546 1546 1547 1547 1548 1548 1548 1548 1549 1550 1551 1552 1554 1555 1555 1556 1557 1558 1558 1559 1560 1560 1561 1561 1562 1562 1563
1527 1528 1528 1529 1529 1530 1530 1531 1531 1532 1533 1534 1535 1536 1537 1538 1539 1541 1541 1542 1543 1543 1543 1542 1541 1542 1542 1544 1545 1546 1546 1546 1546 1545 1545 1546 1546 1547 1547 1547 1547 1547 1547 1548 1549 1551 1552 1553 1554 1555 1556 1557 1557 1558 1559 1559 1560 1561 1561 1562 1562 1563
1526 1528 1528 1529 1529 1530 1530 1530 1531 1531 1533 1534 1535 1536 1537 1538 1539 1539 1540 1541 1542 1542 1543 1542 1541 1542 1542 1542 1543 1544 1545 1546 1546 1545 1545 1546 1546 1546 1547 1546 1546 1546 1546 1547 1549 1550 1551 1552 1554 1555 1556 1557 1557 1558 1559 1559 1560 1560 1561 1562 1562 1563
1526 1527 1527 1528 1529 1529 1529 1529 1530 1531 1532 1533 1535 1536 1537 1537 1538 1538 1539 1539 1540 1541 1541 1541 1541 1542 1542 1541 1541 1541 1543 1544 1545 1545 1545 1545 1546 1547 1547 1547 1546 1546 1546 1547 1549 1550 1552 1553 1554 1554 1555 1556 1557 1558 1558 1559 1559 1560 1561 1561 1562 1563
1524 1525 1526 1527 1528 1528 1528 1529 1529 1530 1531 1533 1535 1536 1536 1536 1537 1537 1538 1538 1539 1539 1540 1541 1540 1541 1542 1542 1542 1541 1541 1543 1543 1543 1544 1545 1547 1548 1549 1548 1547 1547 1547 1548 1549 1551 1552 1553 1554 1554 1555 1556 1557 1557 1558 1558 1559 1560 1560 1561 1562 1563
1523 1524 1525 1526 1526 1527 1527 1528 1528 1529 1530 1532 1534 1535 1535 1536 1537 1537 1537 1538 1538 1538 1539 1540 1539 1540 1541 1542 1543 1542 1541 1541 1542 1542 1543 1544 1546 1549 1550 1550 1549 1549 1548 1549 1550 1551 1552 1553 1553 1554 1555 1555 1556 1557 1557 1558 1558 1559 1560 1561 1561 1562
1523 1523 1524 1525 1525 1526 1527 1527 1528 1528 1529 1531 1533 1533 1534 1535 1535 1536 1537 1537 1538 1538 1539 1540 1539 1539 1541 1542 1542 1541 1541 1540 1541 1542 1543 1544 1546 1548 1551 1551 1551 1549 1549 1549 1550 1551 1552 1553 1553 1554 1554 1555 1556 1556 1557 1557 1558 1558 1559 1560 1561 1561
1522 1523 1523 1524 1525 1525 1526 1527 1527 1528 1528 1529 1531 1531 1533 1534 1535 1535 1536 1537 1537 1538 1539 1539 1539 1538 1539 1540 1540 1540 1539 1540 1541 1542 1543 1544 1545 1548 1550 1551 1551 1550 1549 1549 1550 1550 1551 1552 1553 1553 1554 1554 1555 1556 1556 1557 1557 1558 1558 1559 1560 1561
1522 1522 1523 1523 1524 1525 1526 1527 1527 1528 1528 1528 1529 1530 1532 1533 1534 1534 1535 1536 1536 1537 1538 1537 1538 1538 1537 1537 1537 1537 1538 1539 1541 1542 1542 1543 1544 1547 1548 1550 1551 1550 1550 1549 1549 1550 1551 1551 1552 1553 1554 1554 1555 1556 1556 1556 1557 1557 1558 1558 1559 1560
1522 1522 1523 1523 1524 1524 1525 1526 1527 1528 1528 1528 1528 1529 1530 1532 1533 1534 1534 1534 1534 1535 1536 1535 1535 1536 1537 1537 1536 1536 1538 1540 1541 1542 1542 1543 1544 1546 1547 1549 1550 1550 1550 1549 1549 1550 1550 1551 1552 1552 1553 1554 1555 1556 1556 1556 1556 1557 1557 1557 1558 1559
1521 1522 1522 1523 1524 1524 1525 1526 1527 1528 1528 1528 1529 1529 1529 1531 1532 1533 1533 1533 1533 1533 1534 1534 1534 1534 1536 1537 1537 1537 1538 1539 1540 1541 1542 1543 1544 1544 1545 1547 1548 1549 1549 1549 1549 1549 1550 1550 1551 1552 1552 1553 1554 1555 1555 1556 1556 1556 1556 1557 1557 1558
1521 1521 1522 1522 1523 1524 1525 1526 1526 1527 1528 1528 1529 1529 1530 1530 1531 1532 1533 1532 1532 1532 1532 1533 1533 1533 1534 1535 1536 1536 1537 1538 1539 1541 1542 1543 1543 1543 1544 1546 1546 1547 1547 1548 1548 1549 1549 1550 1550 1551 1551 1552 1553 1554 1555 1555 1555 1555 1556 1556 1556 1557
1521 1521 1521 1522 1523 1523 1524 1525 1526 1526 1527 1528 1529 1529 1530 1531 1531 1532 1532 1532 1532 1532 1531 1531 1531 1532 1532 1533 1534 1535 1536 1536 1538 1542 1544 1543 1543 1542 1543 1544 1544 1545 1546 1546 1547 1547 1548 1548 1549 1550 1550 1551 1553 1553 1554 1554 1555 1555 1555 1555 1556 1556
1520 1520 1521 1522 1522 1523 1524 1525 1526 1526 1527 1528 1528 1529 1530 1530 1531 1531 1532 1532 1532 1532 1532 1532 1532 1532 1532 1532 1533 1533 1534 1535 1537 1541 1542 1542 1542 1541 1541 1541 1542 1544 1544 1545 1546 1546 1547 1547 1548 1549 1549 1550 1552 1552 1553 1553 1554 1554 1554 1554 1555 1555
1520 1520 1521 1521 1522 1523 1524 1525 1526 1526 1527 1528 1528 1529 1530 1530 1531 1531 1531 1532 1532 1532 1533 1533 1533 1533 1533 1533 1533 1533 1534 1535 1536 1537 1538 1540 1541 1540 1539 1540 1542 1543 1543 1544 1545 1545 1545 1546 1546 1547 1548 1549 1550 1551 1552 1552 1553 1553 1553 1553 1554 1554
1519 1520 1520 1521 1522 1523 1524 1525 1526 1527 1527 1528 1528 1529 1530 1530 1530 1530 1531 1531 1531 1532 1532 1533 1533 1533 1534 1533 1533 1533 1533 1534 1534 1536 1537 1538 1539 1538 1538 1539 1541 1543 1543 1543 1544 1544 1544 1545 1546 1546 1547 1548 1549 1550 1551 1551 1551 1551 1552 1552 1552 1553
1518 1519 1520 1521 1522 1524 1525 1526 1526 1527 1528 1528 1528 1529 1529 1530 1530 1530 1530 1530 1531 1531 1531 1531 1532 1532 1533 1533 1533 1533 1533 1533 1534 1535 1536 1536 1537 1537 1538 1538 1539 1541 1541 1542 1543 1544 1544 1545 1545 1545 1546 1547 1548 1549 1549 1550 1550 1550 1550 1551 1551 1551
1518 1519 1520 1521 1523 1524 1525 1526 1527 1527 1528 1528 1529 1529 1530 1530 1530 1530 1530 1530 1530 1530 1529 1529 1529 1530 1531 1532 1533 1533 1533 1533 1533 1534 1535 1535 1536 1537 1537 1537 1537 1538 1539 1541 1542 1543 1544 1544 1545 1545 1546 1547 1548 1548 1548 1549 1549 1549 1549 1549 1550 1550
1518 1519 1520 1521 1523 1524 1525 1526 1527 1527 1528 1529 1529 1529 1530 1530 1530 1530 1529 1529 1529 1529 1528 1528 1528 1528 1530 1531 1532 1532 1532 1533 1533 1533 1534 1534 1535 1536 1537 1537 1537 1537 1538 1539 1541 1542 1543 1544 1544 1545 1546 1547 1547 1548 1547 1547 1548 1548 1548 1548 1548 1548
1519 1519 1520 1521 1523 1524 1525 1526 1526 1527 1528 1529 1529 1530 1530 1530 1530 1530 1530 1529 1529 1529 1528 1527 1527 1527 1528 1529 1530 1531 1532 1532 1533 1533 1534 1534 1535 1535 1536 1536 1537 1537 1537 1539 1540 1541 1542 1542 1543 1544 1545 1546 1546 1547 1547 1547 1547 1546 1546 1547 1547 1547
1519 1519 1520 1522 1523 1524 1525 1526 1526 1527 1528 1528 1529 1530 1530 1531 1531 1531 1530 1530 1529 1529 1528 1527 1527 1527 1527 1528 1529 1530 1531 1531 1532 1532 1533 1534 1534 1534 1535 1535 1536 1537 1537 1538 1539 1540 1540 1541 1542 1542 1543 1544 1544 1545 1546 1547 1547 1545 1545 1545 1545 1545
1518 1519 1520 1522 1523 1524 1525 1526 1526 1527 1528 1529 1529 1530 1531 1531 1531 1531 1531 1530 1530 1529 1529 1528 1528 1528 1528 1528 1529 1529 1530 1531 1531 1532 1532 1533 1533 1534 1534 1534 1535 1536 1537 1538 1538 1539 1540 1540 1540 1541 1541 1542 1543 1544 1544 1546 1547 1545 1544 1544 1544 1544
1517 1519 1520 1521 1522 1524 1525 1526 1526 1527 1528 1529 1530 1531 1531 1531 1531 1531 1531 1531 1530 1530 1530 1529 1529 1529 1529 1529 1529 1530 1530 1531 1531 1532 1532 1532 1533 1533 1533 1534 1534 1535 1536 1537 1538 1538 1539 1539 1539 1540 1540 1541 1541 1542 1543 1544 1545 1545 1544 1542 1542 1543
1516 1518 1519 1520 1521 1523 1524 1525 1526 1527 1528 1529 1530 1531 1531 1531 1532 1531 1532 1532 1531 1531 1531 1530 1530 1530 1530 1530 1530 1531 1531 1532 1532 1532 1532 1532 1532 1532 1533 1533 1534 1534 1535 1536 1536 1537 1538 1538 1539 1539 1539 1540 1540 1541 1542 1543 1544 1544 1543 1541 1539 1540
1515 1517 1518 1519 1520 1522 1524 1525 1525 1526 1527 1528 1529 1530 1531 1531 1532 1532 1532 1532 1532 1532 1532 1531 1531 1531 1531 1531 1531 1532 1532 1532 1532 1533 1533 1533 1533 1533 1533 1533 1533 1534 1534 1535 1535 1536 1536 1537 1537 1538 1538 1538 1539 1540 1541 1541 1541 1541 1541 1540 1538 1537
1514 1516 1517 1518 1519 1521 1522 1523 1524 1525 1526 1528 1528 1529 1530 1531 1531 1531 1532 1532 1532 1532 1532 1532 1532 1532 1532 1532 1532 1532 1532 1533 1533 1533 1533 1533 1533 1533 1532 1532 1533 1533 1533 1534 1534 1535 1535 1536 1536 1536 1537 1537 1537 1538 1538 1539 1539 1539 1539 1538 1537 1535
1513 1514 1515 1517 1518 1519 1521 1522 1523 1524 1525 1527 1528 1529 1529 1530 1531 1531 1531 1532 1532 1532 1533 1533 1533 1532 1532 1532 1533 1533 1533 1533 1533 1533 1533 1533 1533 1533 1532 1532 1532 1532 1533 1533 1533 1534 1534 1534 1535 1535 1535 1535 1536 1536 1536 1537 1537 1537 1537 1536 1535 1534
1510 1512 1514 1515 1516 1517 1519 1520 1521 1522 1524 1525 1527 1528 1528 1529 1530 1530 1531 1531 1531 1532 1532 1533 1533 1533 1533 1533 1533 1533 1533 1533 1533 1533 1533 1532 1532 1532 1532 1532 1532 1532 1532 1532 1532 1532 1532 1533 1533 1533 1533 1534 1534 1534 1534 1535 1535 1535 1535 1535 1534 1533
1508 1511 1512 1513 1514 1515 1517 1518 1520 1521 1522 1524 1525 1526 1527 1528 1529 1529 1530 1530 1531 1531 1532 1532 1532 1532 1533 1533 1533 1533 1533 1533 1533 1533 1532 1532 1532 1532 1532 1532 1531 1531 1531 1531 1531 1531 1531 1531 1531 1531 1531 1531 1532 1532 1532 1532 1532 1532 1532 1532 1532 1531
1506 1508 1509 1510 1512 1513 1515 1517 1518 1520 1521 1522 1524 1525 1526 1527 1528 1528 1528 1529 1530 1530 1531 1531 1532 1532 1532 1532 1533 1533 1533 1533 1533 1532 1532 1532 1532 1532 1531 1531 1531 1530 1530 1530 1530 1530 1530 1529 1529 1529 1529 1529 1529 1529 1529 1529 1529 1530 1530 1529 1529 1529
1502 1505 1506 1508 1510 1512 1514 1516 1517 1518 1519 1521 1522 1523 1525 1526 1526 1527 1527 1528 1528 1529 1530 1530 1530 1531 1531 1532 1532 1532 1532 1532 1532 1532 1532 1532 1531 1531 1531 1531 1530 1530 1529 1529 1529 1529 1529 1528 1528 1528 1527 1527 1527 1527 1526 1526 1527 1527 1527 1527 1527 1527
1501 1503 1505 1507 1510 1511 1514 1515 1516 1517 1518 1519 1520 1522 1523 1524 1525 1526 1526 1527 1527 1528 1528 1529 1529 1529 1530 1530 1531 1531 1531 1531 1531 1531 1531 1531 1531 1531 1531 1530 1530 1529 1529 1528 1528 1527 1527 1527 1527 1527 1526 1526 1525 1525 1524 1524 1524 1524 1524 1524 1524 1524